Regional Weather Roundup
Issued by NWS

Home | Current Version | Previous Version | Text Only | Print | Product List | Glossary Off
Versions: 1 2 3 4 5 6 7 8 9 10 11 12 13 14 15 16 17 18 19 20 21 22 23 24 25 26 27 28 29 30 31 32 33 34 35 36 37 38 39 40 41 42 43 44 45 46 47 48 49 50

000
ASUS43 KOAX 310110
RWRNE

WEATHER ROUNDUP FOR NEBRASKA
NATIONAL WEATHER SERVICE OMAHA NE
800 PM CDT THU OCT 30 2014

NOTES: SATELLITE DATA IS BEING USED TO AUGMENT CLOUD COVER ABOVE
       12000 FEET.
       "FAIR" INDICATES FEW OR NO CLOUDS BELOW 12,000 FEET WITH NO
       SIGNIFICANT WEATHER AND/OR OBSTRUCTIONS TO VISIBILITY.

  * THESE STATIONS DO NOT REPORT WEATHER SUCH AS RAIN...SNOW OR FOG.

NEZ001>004-019>022-054>056-310200-
NEBRASKA PANHANDLE

CITY           SKY/WX    TMP DP  RH WIND       PRES   REMARKS
SCOTTSBLUFF    CLEAR     44  31  60 NE9       30.35R
ALLIANCE       CLEAR     43  32  65 NE9       30.37R
CHADRON        CLEAR     42  31  64 NE8       30.40R
KIMBALL        CLEAR     45  27  50 CALM      30.35R
SIDNEY         CLEAR     44  29  55 NE6       30.37R
$$

NEZ057>060-069>072-079>082-310200-
SOUTHWEST NEBRASKA

CITY           SKY/WX    TMP DP  RH WIND       PRES   REMARKS
NORTH PLATTE   CLEAR     47  30  51 NE12      30.37R
IMPERIAL       CLEAR     48  29  47 NE9       30.35R
LEXINGTON      CLEAR     49  33  54 N9        30.35R
MCCOOK         CLEAR     51  30  44 N9        30.33R
OGALLALA       CLEAR     49  33  55 NE8       30.36R
$$

NEZ005>010-023>029-035>040-094-310200-
NORTH CENTRAL NEBRASKA

CITY           SKY/WX    TMP DP  RH WIND       PRES   REMARKS
VALENTINE      CLEAR     40  30  67 NE10      30.42R WCI  33
AINSWORTH      CLEAR     37  31  79 N5        30.41R WCI  33
BROKEN BOW     CLEAR     45  33  63 N16       30.35R
O`NEILL        PTCLDY    40  34  80 N12       30.40R WCI  33
ORD            CLEAR     42  33  70 N12       30.36R
THEDFORD       CLEAR     43  32  66 N9        30.41R
$$

NEZ041-046>049-061>064-073>077-083>087-310200-
SOUTH CENTRAL NEBRASKA

CITY           SKY/WX    TMP DP  RH WIND       PRES   REMARKS
GRAND ISLAND   CLEAR     45  35  68 N21       30.33R
AURORA         CLEAR     45  34  65 N21G30    30.32R
HASTINGS       CLEAR     49  34  56 N16       30.30R
HEBRON         CLEAR     53  35  50 N15G21    30.26R
HOLDREGE       CLEAR     50  32  49 N16G22    30.31R
KEARNEY *      CLEAR     48  32  53 N18G24    30.33R
YORK           CLEAR     45  36  70 N22G35    30.29R
$$

NEZ011>018-030>034-042>045-310200-
NORTHEAST NEBRASKA

CITY           SKY/WX    TMP DP  RH WIND       PRES   REMARKS
NORFOLK        CLOUDY    44  39  82 N17       30.33R
ALBION         CLOUDY    44  35  70 N20       30.35R
BLAIR          CLEAR     48  40  73 NW20G26   30.23R
FREMONT        PTCLDY    47  39  75 NW15G22   30.28R
TEKAMAH        CLOUDY    50  41  71 N22G30    30.26R
WAYNE          CLOUDY    45  39  82 N16G25    30.33R
$$

NEZ050>053-065>068-078-088>093-310200-
SOUTHEAST NEBRASKA

CITY           SKY/WX    TMP DP  RH WIND       PRES   REMARKS
LINCOLN        CLEAR     48  36  63 N21G29    30.28R
OMAHA EPPLEY   PTCLDY    49  39  68 NW21G26   30.23R
BEATRICE       CLEAR     51  38  61 N20       30.23R
FALLS CITY     CLEAR     54  39  57 NW15G24   30.16R
NEBRASKA CITY  CLEAR     52  35  52 N18G28    30.19R
PLATTSMOUTH    PTCLDY    49  37  61 NW18G25   30.22R
$$

NEZ044-045-051>053-067-310200-
OMAHA AREA

CITY           SKY/WX    TMP DP  RH WIND       PRES   REMARKS
OMAHA EPPLEY   PTCLDY    49  39  68 NW21G26   30.23R
BLAIR          CLEAR     48  40  73 NW20G26   30.23R
FREMONT        PTCLDY    47  39  75 NW15G22   30.28R
MILLARD        CLEAR     49  39  68 NW13G21   30.24R
OFFUTT AFB     CLEAR     50  40  67 NW18G31   30.22R
PLATTSMOUTH    PTCLDY    49  37  61 NW18G25   30.22R
WAHOO          FAIR      46  37  70 NW13G21   30.27R
$$



USA.gov is the U.S. government's official web portal to all federal, state and local government web resources and services.